| time (UTC) | temp F | wind direction | speed knots | gust knots | rain 1hr in | rain 24hr in | rain mn in | humidity % | barometer mb |
| 20260506232430 | 54 | 140 | 0.0 | 1.7 | 0.00 | 0.09 | 0.09 | 63 | 1014.1 |
| 20260506231926 | 54 | 32 | 2.6 | 2.6 | 0.00 | 0.09 | 0.09 | 65 | 1014.0 |
| 20260506231424 | 54 | 90 | 0.9 | 3.5 | 0.00 | 0.09 | 0.09 | 57 | 1013.7 |
| 20260506230921 | 55 | 144 | 0.0 | 1.7 | 0.00 | 0.09 | 0.09 | 64 | 1013.9 |
| 20260506230417 | 54 | 112 | 0.0 | 1.7 | 0.00 | 0.09 | 0.09 | 59 | 1013.8 |
| 20260506225914 | 54 | 135 | 0.0 | 1.7 | 0.00 | 0.09 | 0.09 | 59 | 1013.8 |
| 20260506225411 | 54 | 131 | 2.6 | 3.5 | 0.00 | 0.09 | 0.09 | 59 | 1013.9 |
| 20260506224908 | 55 | 126 | 2.6 | 2.6 | 0.00 | 0.09 | 0.09 | 61 | 1013.7 |
| 20260506224406 | 55 | 93 | 0.0 | 2.6 | 0.00 | 0.09 | 0.09 | 58 | 1013.6 |
| 20260506223901 | 55 | 61 | 4.3 | 4.3 | 0.00 | 0.09 | 0.09 | 57 | 1013.4 |
| 20260506223357 | 55 | 90 | 1.7 | 1.7 | 0.00 | 0.09 | 0.09 | 58 | 1013.8 |
| 20260506222854 | 55 | 90 | 1.7 | 5.2 | 0.00 | 0.09 | 0.09 | 57 | 1013.5 |
| 20260506222350 | 55 | 117 | 0.0 | 3.5 | 0.00 | 0.09 | 0.09 | 56 | 1013.6 |
| 20260506221848 | 55 | 83 | 0.0 | 4.3 | 0.00 | 0.09 | 0.09 | 58 | 1013.2 |
| 20260506221345 | 55 | 78 | 0.9 | 1.7 | 0.00 | 0.09 | 0.09 | 59 | 1013.0 |
| 20260506220842 | 55 | 100 | 2.6 | 4.3 | 0.00 | 0.09 | 0.09 | 57 | 1013.1 |
| 20260506220338 | 55 | 122 | 2.6 | 3.5 | 0.00 | 0.09 | 0.09 | 59 | 1012.9 |
| 20260506215835 | 55 | 47 | 2.6 | 4.3 | 0.00 | 0.09 | 0.09 | 57 | 1012.9 |
| 20260506215331 | 55 | 90 | 0.9 | 2.6 | 0.00 | 0.09 | 0.09 | 59 | 1012.9 |
| 20260506214827 | 55 | 90 | 0.0 | 2.6 | 0.00 | 0.09 | 0.09 | 57 | 1012.8 |
| 20260506214324 | 55 | 33 | 1.7 | 6.1 | 0.00 | 0.09 | 0.09 | 57 | 1013.2 |
| 20260506213822 | 55 | 57 | 3.5 | 3.5 | 0.00 | 0.09 | 0.09 | 59 | 1012.9 |
| 20260506213319 | 55 | 66 | 2.6 | 3.5 | 0.00 | 0.09 | 0.09 | 56 | 1012.7 |
| 20260506212816 | 55 | 114 | 0.0 | 4.3 | 0.00 | 0.09 | 0.09 | 57 | 1012.5 |
| 20260506212312 | 56 | 97 | 0.9 | 1.7 | 0.00 | 0.09 | 0.09 | 57 | 1012.7 |
| 20260506211807 | 56 | 52 | 2.6 | 5.2 | 0.00 | 0.09 | 0.09 | 57 | 1012.9 |
| 20260506211303 | 56 | 123 | 0.0 | 2.6 | 0.00 | 0.09 | 0.09 | 59 | 1012.5 |
| 20260506210801 | 56 | 130 | 2.6 | 5.2 | 0.00 | 0.09 | 0.09 | 58 | 1012.6 |
| 20260506210257 | 57 | 180 | 0.0 | 0.9 | 0.00 | 0.09 | 0.09 | 58 | 1012.6 |
| 20260506205755 | 57 | 94 | 2.6 | 2.6 | 0.00 | 0.09 | 0.09 | 60 | 1012.5 |
| 20260506205250 | 57 | 144 | 2.6 | 3.5 | 0.00 | 0.09 | 0.09 | 60 | 1012.2 |
| 20260506204747 | 57 | 132 | 1.7 | 1.7 | 0.00 | 0.09 | 0.09 | 59 | 1012.4 |
| 20260506204245 | 56 | 77 | 0.0 | 2.6 | 0.00 | 0.09 | 0.09 | 60 | 1012.3 |
| 20260506203742 | 57 | 120 | 0.0 | 2.6 | 0.00 | 0.09 | 0.09 | 61 | 1012.2 |
| 20260506203239 | 57 | 32 | 0.0 | 3.5 | 0.00 | 0.09 | 0.09 | 58 | 1012.3 |
| 20260506202736 | 57 | 103 | 0.0 | 2.6 | 0.00 | 0.09 | 0.09 | 57 | 1012.2 |
| 20260506202233 | 57 | 154 | 1.7 | 6.1 | 0.00 | 0.09 | 0.09 | 56 | 1012.4 |
| 20260506201730 | 57 | 57 | 3.5 | 6.1 | 0.00 | 0.09 | 0.09 | 55 | 1012.4 |
| 20260506201227 | 58 | 142 | 2.6 | 4.3 | 0.00 | 0.09 | 0.09 | 55 | 1012.3 |
| 20260506200724 | 57 | 74 | 0.0 | 2.6 | 0.00 | 0.09 | 0.09 | 57 | 1012.3 |
| 20260506200220 | 57 | 57 | 1.7 | 2.6 | 0.00 | 0.09 | 0.09 | 56 | 1012.2 |
| 20260506195716 | 57 | 66 | 2.6 | 2.6 | 0.00 | 0.09 | 0.09 | 58 | 1012.2 |
| 20260506195213 | 58 | 90 | 0.0 | 2.6 | 0.00 | 0.09 | 0.09 | 56 | 1012.4 |
| 20260506194705 | 58 | 139 | 1.7 | 3.5 | 0.00 | 0.09 | 0.09 | 60 | 1012.4 |
| 20260506194201 | 57 | 53 | 4.3 | 6.1 | 0.00 | 0.09 | 0.09 | 54 | 1012.1 |
| 20260506193659 | 57 | 22 | 2.6 | 4.3 | 0.00 | 0.09 | 0.09 | 54 | 1012.2 |
| 20260506193155 | 57 | 105 | 2.6 | 4.3 | 0.00 | 0.09 | 0.09 | 56 | 1012.3 |
| 20260506192652 | 58 | 121 | 1.7 | 2.6 | 0.00 | 0.09 | 0.09 | 53 | 1012.0 |
| 20260506192148 | 59 | 50 | 4.3 | 5.2 | 0.00 | 0.09 | 0.09 | 54 | 1012.3 |
| 20260506191646 | 59 | 106 | 1.7 | 4.3 | 0.00 | 0.09 | 0.09 | 56 | 1012.4 |
| 20260506191142 | 58 | 286 | 0.0 | 1.7 | 0.00 | 0.09 | 0.09 | 60 | 1012.6 |
| 20260506190639 | 57 | 109 | 0.0 | 6.1 | 0.00 | 0.09 | 0.09 | 57 | 1012.5 |
| 20260506190135 | 58 | 187 | 0.0 | 2.6 | 0.00 | 0.09 | 0.09 | 59 | 1012.5 |
| 20260506185633 | 58 | 114 | 0.0 | 2.6 | 0.00 | 0.09 | 0.09 | 61 | 1012.3 |
| 20260506185129 | 57 | 138 | 0.0 | 2.6 | 0.00 | 0.09 | 0.09 | 55 | 1012.6 |
| 20260506184626 | 57 | 103 | 0.0 | 2.6 | 0.00 | 0.09 | 0.09 | 53 | 1012.7 |
| 20260506184124 | 56 | 35 | 4.3 | 6.1 | 0.00 | 0.09 | 0.09 | 54 | 1012.2 |
| 20260506183620 | 57 | 162 | 0.0 | 2.6 | 0.00 | 0.09 | 0.09 | 55 | 1012.5 |
| 20260506183116 | 56 | 56 | 1.7 | 7.0 | 0.00 | 0.09 | 0.09 | 55 | 1012.5 |
| 20260506182614 | 56 | 144 | 2.6 | 3.5 | 0.00 | 0.09 | 0.09 | 57 | 1012.5 |
| 20260506182111 | 55 | 77 | 3.5 | 7.0 | 0.00 | 0.09 | 0.09 | 56 | 1012.7 |
| 20260506181609 | 55 | 55 | 2.6 | 4.3 | 0.00 | 0.09 | 0.09 | 56 | 1012.4 |
| 20260506181105 | 56 | 85 | 1.7 | 2.6 | 0.00 | 0.09 | 0.09 | 62 | 1012.6 |
| 20260506180602 | 55 | 71 | 2.6 | 6.1 | 0.00 | 0.09 | 0.09 | 59 | 1012.5 |
| 20260506180059 | 56 | 77 | 0.9 | 4.3 | 0.00 | 0.09 | 0.09 | 60 | 1012.5 |
| 20260506175555 | 57 | 143 | 1.7 | 2.6 | 0.00 | 0.09 | 0.09 | 58 | 1012.4 |
| 20260506175051 | 57 | 61 | 0.0 | 3.5 | 0.00 | 0.09 | 0.09 | 64 | 1012.4 |
| 20260506174550 | 56 | 139 | 0.0 | 3.5 | 0.00 | 0.09 | 0.09 | 57 | 1012.5 |
| 20260506174046 | 57 | 90 | 0.0 | 6.1 | 0.00 | 0.09 | 0.09 | 60 | 1012.6 |
| 20260506173544 | 56 | 74 | 1.7 | 5.2 | 0.00 | 0.09 | 0.09 | 61 | 1012.4 |
| 20260506173040 | 55 | 142 | 2.6 | 4.3 | 0.00 | 0.09 | 0.09 | 64 | 1012.4 |
| 20260506172538 | 56 | 15 | 1.7 | 3.5 | 0.00 | 0.09 | 0.09 | 61 | 1012.4 |
| 20260506172034 | 55 | 28 | 1.7 | 4.3 | 0.00 | 0.09 | 0.09 | 61 | 1012.3 |
| 20260506171531 | 55 | 22 | 0.0 | 3.5 | 0.00 | 0.09 | 0.09 | 66 | 1012.8 |
| 20260506171029 | 56 | 16 | 0.0 | 1.7 | 0.00 | 0.09 | 0.09 | 69 | 1012.8 |
| 20260506170526 | 55 | 57 | 0.0 | 3.5 | 0.00 | 0.09 | 0.09 | 65 | 1012.4 |
| 20260506170018 | 56 | 102 | 0.9 | 3.5 | 0.00 | 0.09 | 0.09 | 66 | 1012.5 |
| 20260506165516 | 54 | 43 | 3.5 | 7.0 | 0.00 | 0.09 | 0.09 | 66 | 1012.4 |
| 20260506165012 | 54 | 111 | 0.0 | 1.7 | 0.00 | 0.09 | 0.09 | 71 | 1012.3 |
| 20260506164509 | 53 | 47 | 2.6 | 4.3 | 0.00 | 0.09 | 0.09 | 72 | 1012.3 |
| 20260506164006 | 54 | 77 | 0.0 | 0.9 | 0.00 | 0.09 | 0.09 | 74 | 1012.5 |
| 20260506163502 | 53 | 127 | 0.0 | 2.6 | 0.00 | 0.09 | 0.09 | 76 | 1012.6 |
| 20260506162956 | 54 | 65 | 0.0 | 1.7 | 0.00 | 0.09 | 0.09 | 75 | 1012.5 |
| 20260506162455 | 53 | 141 | 0.0 | 2.6 | 0.00 | 0.09 | 0.09 | 75 | 1012.5 |
| 20260506161951 | 53 | 120 | 0.9 | 2.6 | 0.00 | 0.09 | 0.09 | 78 | 1012.6 |
| 20260506161449 | 53 | 29 | 0.0 | 1.7 | 0.00 | 0.09 | 0.09 | 78 | 1012.5 |
| 20260506160946 | 52 | 75 | 0.9 | 3.5 | 0.00 | 0.09 | 0.09 | 78 | 1012.4 |
| 20260506160444 | 52 | 40 | 0.0 | 2.6 | 0.00 | 0.09 | 0.09 | 77 | 1012.5 |
| 20260506155941 | 53 | 20 | 0.0 | 4.3 | 0.00 | 0.09 | 0.09 | 81 | 1012.4 |
| 20260506155439 | 52 | 0 | 0.0 | 0.0 | 0.00 | 0.09 | 0.09 | 81 | 1012.4 |
| 20260506153611 | 50 | 71 | 0.0 | 3.5 | 0.00 | 0.09 | 0.09 | 84 | 1012.2 |
| 20260506153108 | 50 | 151 | 0.0 | 1.7 | 0.00 | 0.09 | 0.09 | 84 | 1012.0 |
| 20260506152605 | 50 | 20 | 0.9 | 1.7 | 0.00 | 0.09 | 0.09 | 85 | 1011.9 |
| 20260506152103 | 50 | 81 | 0.0 | 1.7 | 0.00 | 0.09 | 0.09 | 88 | 1011.9 |
| 20260506151601 | 50 | 15 | 0.0 | 1.7 | 0.00 | 0.09 | 0.09 | 89 | 1011.8 |
| 20260506151058 | 49 | 67 | 1.7 | 2.6 | 0.00 | 0.09 | 0.09 | 88 | 1011.5 |
| 20260506150554 | 49 | 26 | 0.9 | 3.5 | 0.00 | 0.09 | 0.09 | 89 | 1011.6 |
| 20260506150051 | 49 | 0 | 0.0 | 2.6 | 0.00 | 0.09 | 0.09 | 90 | 1011.7 |
| 20260506145548 | 48 | 77 | 0.0 | 0.0 | 0.00 | 0.09 | 0.09 | 91 | 1011.7 |
| 20260506145045 | 48 | 59 | 1.7 | 1.7 | 0.00 | 0.09 | 0.09 | 92 | 1011.7 |
| 20260506144542 | 48 | 50 | 2.6 | 3.5 | 0.00 | 0.09 | 0.09 | 92 | 1011.5 |
| 20260506144039 | 48 | 120 | 0.0 | 1.7 | 0.00 | 0.09 | 0.09 | 94 | 1011.6 |
| 20260506143537 | 48 | 36 | 1.7 | 2.6 | 0.00 | 0.09 | 0.09 | 94 | 1011.7 |
| 20260506143035 | 47 | 21 | 3.5 | 3.5 | 0.00 | 0.09 | 0.09 | 94 | 1011.4 |
| 20260506142532 | 47 | 157 | 0.0 | 4.3 | 0.00 | 0.09 | 0.09 | 96 | 1011.3 |
| 20260506142031 | 48 | 90 | 0.0 | 1.7 | 0.00 | 0.09 | 0.09 | 97 | 1011.1 |
| 20260506141528 | 48 | 98 | 0.0 | 0.9 | 0.00 | 0.09 | 0.09 | 98 | 1011.3 |
| 20260506141026 | 48 | 58 | 2.6 | 2.6 | 0.00 | 0.09 | 0.09 | 98 | 1011.4 |
| 20260506140523 | 48 | 99 | 0.0 | 4.3 | 0.00 | 0.09 | 0.09 | 98 | 1011.0 |
| 20260506140021 | 48 | 61 | 1.7 | 1.7 | 0.00 | 0.09 | 0.09 | 99 | 1010.8 |
| 20260506135517 | 48 | 73 | 0.0 | 0.0 | 0.00 | 0.09 | 0.09 | 99 | 1010.6 |
| 20260506135014 | 48 | 20 | 0.0 | 2.6 | 0.00 | 0.09 | 0.09 | 99 | 1010.9 |
| 20260506134510 | 48 | 90 | 0.0 | 1.7 | 0.00 | 0.09 | 0.09 | 99 | 1010.6 |
| 20260506134006 | 47 | 90 | 0.0 | 2.6 | 0.00 | 0.09 | 0.09 | 99 | 1010.8 |
| 20260506133504 | 46 | 106 | 0.0 | 3.5 | 0.00 | 0.09 | 0.09 | 99 | 1010.5 |
| 20260506133000 | 47 | 337 | 0.0 | 2.6 | 0.00 | 0.09 | 0.09 | 99 | 1010.5 |
| 20260506132457 | 47 | 75 | 0.9 | 1.7 | 0.00 | 0.09 | 0.09 | 99 | 1010.4 |
| 20260506131955 | 48 | 84 | 1.7 | 1.7 | 0.00 | 0.09 | 0.09 | 99 | 1010.5 |
| 20260506131451 | 47 | 71 | 1.7 | 2.6 | 0.00 | 0.09 | 0.09 | 99 | 1010.2 |
| 20260506130948 | 47 | 0 | 0.9 | 0.9 | 0.00 | 0.09 | 0.09 | 99 | 1010.4 |
| 20260506130445 | 47 | 23 | 0.0 | 0.0 | 0.00 | 0.09 | 0.09 | 99 | 1010.3 |
| 20260506125942 | 46 | 23 | 0.0 | 0.9 | 0.02 | 0.09 | 0.09 | 99 | 1010.3 |
| 20260506125441 | 46 | 90 | 1.7 | 1.7 | 0.02 | 0.09 | 0.09 | 99 | 1010.5 |
| 20260506124938 | 46 | 45 | 2.6 | 3.5 | 0.00 | 0.08 | 0.08 | 99 | 1010.2 |
| 20260506124436 | 46 | 74 | 0.0 | 1.7 | 0.00 | 0.08 | 0.08 | 99 | 1009.9 |
| 20260506123934 | 46 | 24 | 1.7 | 1.7 | 0.00 | 0.08 | 0.08 | 99 | 1009.6 |
| 20260506123431 | 46 | 0 | 0.9 | 1.7 | 0.00 | 0.08 | 0.08 | 99 | 1009.8 |
| 20260506122928 | 46 | 69 | 0.9 | 0.9 | 0.00 | 0.08 | 0.08 | 99 | 1010.1 |
| 20260506122425 | 45 | 26 | 0.9 | 3.5 | 0.00 | 0.08 | 0.08 | 99 | 1010.2 |
| 20260506121924 | 45 | 75 | 0.0 | 1.7 | 0.00 | 0.08 | 0.08 | 99 | 1010.3 |
| 20260506121420 | 45 | 111 | 0.0 | 1.7 | 0.00 | 0.08 | 0.08 | 99 | 1010.2 |
| 20260506120917 | 45 | 49 | 0.9 | 3.5 | 0.00 | 0.08 | 0.08 | 99 | 1010.2 |
| 20260506120415 | 45 | 53 | 1.7 | 1.7 | 0.00 | 0.08 | 0.08 | 99 | 1009.6 |
| 20260506115912 | 45 | 34 | 1.7 | 2.6 | 0.00 | 0.08 | 0.08 | 99 | 1010.1 |
| 20260506115410 | 45 | 28 | 2.6 | 2.6 | 0.00 | 0.08 | 0.08 | 99 | 1009.3 |
| 20260506114908 | 45 | 36 | 1.7 | 1.7 | 0.00 | 0.08 | 0.08 | 99 | 1009.1 |
| 20260506114405 | 45 | 36 | 1.7 | 4.3 | 0.00 | 0.08 | 0.08 | 99 | 1009.1 |
| 20260506113904 | 45 | 32 | 2.6 | 3.5 | 0.00 | 0.08 | 0.08 | 99 | 1009.4 |
| 20260506113401 | 45 | 337 | 0.0 | 0.9 | 0.00 | 0.08 | 0.08 | 99 | 1009.5 |
| 20260506112857 | 45 | 74 | 0.0 | 2.6 | 0.02 | 0.08 | 0.08 | 99 | 1009.1 |
| 20260506112355 | 45 | 45 | 0.0 | 2.6 | 0.02 | 0.08 | 0.08 | 99 | 1009.3 |
| 20260506111852 | 45 | 32 | 1.7 | 1.7 | 0.00 | 0.08 | 0.08 | 99 | 1009.0 |
| 20260506111350 | 45 | 15 | 0.0 | 1.7 | 0.00 | 0.08 | 0.08 | 99 | 1009.5 |
| 20260506110847 | 45 | 74 | 0.0 | 0.9 | 0.00 | 0.08 | 0.08 | 99 | 1009.5 |
| 20260506110344 | 45 | 0 | 0.0 | 2.6 | 0.00 | 0.08 | 0.08 | 99 | 1009.3 |
| 20260506105841 | 45 | 82 | 0.0 | 2.6 | 0.00 | 0.08 | 0.08 | 99 | 1009.0 |
| 20260506105338 | 45 | 90 | 0.0 | 1.7 | 0.00 | 0.08 | 0.08 | 99 | 1009.0 |
| 20260506104835 | 45 | 28 | 1.7 | 2.6 | 0.00 | 0.08 | 0.08 | 99 | 1008.9 |
| 20260506104333 | 45 | 48 | 1.7 | 1.7 | 0.00 | 0.08 | 0.08 | 99 | 1008.7 |
| 20260506103830 | 45 | 54 | 0.0 | 1.7 | 0.00 | 0.08 | 0.08 | 99 | 1008.1 |
| 20260506103328 | 45 | 0 | 0.0 | 1.7 | 0.00 | 0.08 | 0.08 | 99 | 1007.9 |
| 20260506102825 | 45 | 56 | 1.7 | 2.6 | 0.00 | 0.08 | 0.08 | 99 | 1007.8 |
| 20260506102323 | 45 | 300 | 0.0 | 3.5 | 0.00 | 0.08 | 0.08 | 99 | 1007.5 |
| 20260506101820 | 45 | 41 | 3.5 | 3.5 | 0.00 | 0.08 | 0.08 | 99 | 1007.4 |
| 20260506101315 | 45 | 5 | 1.7 | 2.6 | 0.00 | 0.08 | 0.08 | 99 | 1008.0 |
| 20260506100814 | 45 | 29 | 2.6 | 2.6 | 0.02 | 0.08 | 0.08 | 99 | 1007.9 |
| 20260506100312 | 45 | 9 | 1.7 | 2.6 | 0.02 | 0.08 | 0.08 | 99 | 1008.2 |
| 20260506095810 | 45 | 26 | 1.7 | 2.6 | 0.00 | 0.07 | 0.07 | 99 | 1008.3 |
| 20260506095306 | 45 | 77 | 1.7 | 1.7 | 0.00 | 0.07 | 0.07 | 99 | 1007.8 |
| 20260506094803 | 45 | 84 | 0.9 | 2.6 | 0.00 | 0.07 | 0.07 | 99 | 1007.7 |
| 20260506094302 | 45 | 70 | 1.7 | 2.6 | 0.00 | 0.07 | 0.07 | 99 | 1007.6 |
| 20260506093800 | 45 | 24 | 0.0 | 1.7 | 0.00 | 0.07 | 0.07 | 99 | 1007.7 |
| 20260506093256 | 45 | 15 | 0.0 | 2.6 | 0.00 | 0.07 | 0.07 | 99 | 1008.4 |
| 20260506092755 | 45 | 60 | 0.9 | 4.3 | 0.00 | 0.07 | 0.07 | 99 | 1008.7 |
| 20260506092252 | 45 | 63 | 0.0 | 3.5 | 0.00 | 0.07 | 0.07 | 99 | 1008.8 |
| 20260506091749 | 46 | 59 | 2.6 | 2.6 | 0.00 | 0.07 | 0.07 | 99 | 1008.3 |
| 20260506091247 | 46 | 5 | 0.9 | 3.5 | 0.00 | 0.07 | 0.07 | 99 | 1008.2 |
| 20260506090744 | 45 | 286 | 0.0 | 2.6 | 0.00 | 0.07 | 0.07 | 99 | 1008.3 |
| 20260506090241 | 46 | 70 | 2.6 | 2.6 | 0.00 | 0.07 | 0.07 | 99 | 1008.1 |
| 20260506085738 | 46 | 331 | 0.0 | 1.7 | 0.00 | 0.07 | 0.07 | 99 | 1008.4 |
| 20260506085234 | 46 | 18 | 0.9 | 2.6 | 0.00 | 0.07 | 0.07 | 99 | 1008.4 |
| 20260506084731 | 46 | 325 | 0.9 | 3.5 | 0.00 | 0.07 | 0.07 | 99 | 1008.3 |
| 20260506084227 | 46 | 25 | 5.2 | 6.1 | 0.00 | 0.07 | 0.07 | 99 | 1008.3 |
| 20260506083724 | 47 | 80 | 1.7 | 6.1 | 0.02 | 0.07 | 0.07 | 99 | 1008.2 |
| 20260506083222 | 47 | 121 | 2.6 | 3.5 | 0.02 | 0.07 | 0.07 | 99 | 1008.0 |
| 20260506082719 | 48 | 115 | 1.7 | 3.5 | 0.00 | 0.07 | 0.07 | 99 | 1007.6 |
| 20260506082215 | 48 | 74 | 0.0 | 0.9 | 0.00 | 0.07 | 0.07 | 99 | 1007.4 |
| 20260506081713 | 48 | 56 | 1.7 | 2.6 | 0.00 | 0.07 | 0.07 | 99 | 1007.5 |
| 20260506081210 | 48 | 24 | 1.7 | 2.6 | 0.02 | 0.07 | 0.07 | 99 | 1007.0 |
| 20260506080708 | 49 | 97 | 0.9 | 4.3 | 0.00 | 0.07 | 0.07 | 99 | 1007.4 |
| 20260506080204 | 49 | 20 | 0.0 | 2.6 | 0.00 | 0.07 | 0.07 | 99 | 1007.5 |
| 20260506073148 | 49 | 57 | 0.0 | 1.7 | 0.00 | 0.07 | 0.07 | 99 | 1007.4 |
| 20260506072644 | 49 | 97 | 0.9 | 2.6 | 0.02 | 0.07 | 0.07 | 99 | 1007.4 |
| 20260506072143 | 50 | 32 | 0.9 | 3.5 | 0.05 | 0.07 | 0.07 | 99 | 1007.0 |
| 20260506071640 | 50 | 132 | 1.7 | 2.6 | 0.02 | 0.06 | 0.06 | 99 | 1007.1 |
| 20260506071137 | 50 | 106 | 0.9 | 1.7 | 0.02 | 0.06 | 0.06 | 99 | 1007.3 |
| 20260506070634 | 50 | 111 | 0.9 | 1.7 | 0.05 | 0.06 | 0.06 | 99 | 1007.0 |
| 20260506070131 | 50 | 109 | 2.6 | 2.6 | 0.05 | 0.06 | 0.06 | 99 | 1006.9 |
| 20260506062109 | 52 | 84 | 0.9 | 1.7 | 0.02 | 0.04 | 0.04 | 99 | 1007.5 |
| 20260506061604 | 52 | 82 | 0.0 | 0.0 | 0.02 | 0.03 | 0.03 | 99 | 1007.3 |
| 20260506061102 | 52 | 114 | 1.7 | 2.6 | 0.02 | 0.03 | 0.03 | 99 | 1007.4 |
| 20260506060601 | 53 | 63 | 1.7 | 2.6 | 0.00 | 0.03 | 0.03 | 99 | 1007.8 |
| 20260506051029 | 58 | 71 | 0.0 | 0.0 | 0.00 | 0.02 | 0.02 | 99 | 1008.2 |
| 20260506050527 | 58 | 254 | 0.0 | 0.0 | 0.00 | 0.02 | 0.02 | 99 | 1008.3 |
| 20260506045017 | 58 | 300 | 0.0 | 0.9 | 0.02 | 0.02 | 0.02 | 99 | 1008.3 |
| 20260506044516 | 58 | 111 | 0.0 | 0.0 | 0.05 | 0.02 | 0.02 | 99 | 1008.3 |
| 20260506044012 | 58 | 111 | 0.0 | 0.0 | 0.00 | 0.02 | 0.02 | 99 | 1008.5 |
| 20260506043509 | 58 | 111 | 0.0 | 1.7 | 0.02 | 0.02 | 0.02 | 99 | 1008.7 |
| 20260506043007 | 58 | 8 | 0.0 | 1.7 | 0.05 | 0.02 | 0.02 | 99 | 1008.6 |
| 20260506042506 | 58 | 81 | 0.0 | 0.0 | 0.05 | 0.01 | 0.01 | 99 | 1008.6 |
| 20260506042004 | 58 | 81 | 0.0 | 0.0 | 0.02 | 0.01 | 0.01 | 99 | 1008.9 |
| 20260506041502 | 58 | 74 | 0.0 | 0.0 | 0.00 | 0.00 | 0.00 | 99 | 1008.8 |
| 20260506040959 | 58 | 74 | 0.0 | 0.0 | 0.02 | 0.00 | 0.00 | 99 | 1008.8 |
| 20260506040456 | 58 | 74 | 0.0 | 0.0 | 0.02 | 0.00 | 0.00 | 99 | 1008.9 |
| 20260506035952 | 58 | 74 | 0.0 | 0.0 | 0.02 | 0.06 | 0.06 | 99 | 1008.9 |
| 20260506035449 | 58 | 74 | 0.0 | 0.0 | 0.02 | 0.06 | 0.06 | 99 | 1008.9 |
| 20260506034946 | 58 | 74 | 0.0 | 0.0 | 0.00 | 0.06 | 0.06 | 99 | 1008.9 |
| 20260506034443 | 58 | 74 | 0.0 | 0.0 | 0.00 | 0.06 | 0.06 | 99 | 1008.8 |
| 20260506033940 | 58 | 74 | 0.0 | 0.0 | 0.00 | 0.06 | 0.06 | 99 | 1008.9 |
| 20260506033438 | 58 | 74 | 0.0 | 0.0 | 0.02 | 0.06 | 0.06 | 99 | 1009.0 |
| 20260506032934 | 58 | 74 | 0.0 | 0.0 | 0.05 | 0.06 | 0.06 | 99 | 1009.0 |
| 20260506032431 | 58 | 74 | 0.0 | 0.0 | 0.02 | 0.05 | 0.05 | 99 | 1009.1 |
| 20260506031928 | 58 | 74 | 0.0 | 0.0 | 0.02 | 0.05 | 0.05 | 99 | 1008.8 |
| 20260506031425 | 58 | 74 | 0.0 | 0.0 | 0.02 | 0.05 | 0.05 | 99 | 1008.7 |
| 20260506030923 | 58 | 74 | 0.0 | 0.9 | 0.00 | 0.04 | 0.04 | 99 | 1008.8 |
| 20260506030421 | 58 | 74 | 0.0 | 0.0 | 0.00 | 0.04 | 0.04 | 99 | 1009.1 |
| 20260506025917 | 58 | 74 | 0.0 | 0.0 | 0.02 | 0.04 | 0.04 | 99 | 1009.2 |
| 20260506025415 | 58 | 81 | 0.0 | 0.0 | 0.02 | 0.04 | 0.04 | 99 | 1009.2 |
| 20260506024911 | 58 | 69 | 0.0 | 0.0 | 0.00 | 0.04 | 0.04 | 99 | 1009.0 |
| 20260506024408 | 58 | 81 | 0.0 | 0.9 | 0.02 | 0.04 | 0.04 | 99 | 1009.3 |
| 20260506023904 | 58 | 90 | 0.0 | 0.0 | 0.00 | 0.04 | 0.04 | 99 | 1009.2 |
| 20260506023401 | 58 | 90 | 0.0 | 0.0 | 0.02 | 0.04 | 0.04 | 99 | 1009.3 |
| 20260506022857 | 58 | 99 | 0.0 | 0.0 | 0.02 | 0.04 | 0.04 | 99 | 1009.0 |
| 20260506022355 | 58 | 99 | 0.0 | 0.0 | 0.00 | 0.03 | 0.03 | 99 | 1009.2 |
| 20260506021853 | 58 | 66 | 0.9 | 1.7 | 0.00 | 0.03 | 0.03 | 99 | 1009.5 |
| 20260506021350 | 58 | 90 | 0.9 | 0.9 | 0.00 | 0.03 | 0.03 | 99 | 1009.3 |
| 20260506020846 | 58 | 99 | 0.0 | 0.9 | 0.02 | 0.03 | 0.03 | 99 | 1009.3 |
| 20260506020345 | 58 | 73 | 1.7 | 1.7 | 0.02 | 0.03 | 0.03 | 99 | 1009.1 |
| 20260506015842 | 58 | 90 | 0.0 | 0.9 | 0.00 | 0.03 | 0.03 | 99 | 1009.3 |
| 20260506015339 | 58 | 74 | 0.0 | 0.9 | 0.00 | 0.03 | 0.03 | 99 | 1009.2 |
| 20260506014836 | 58 | 75 | 0.9 | 0.9 | 0.00 | 0.03 | 0.03 | 99 | 1009.0 |
| 20260506014333 | 58 | 74 | 0.9 | 1.7 | 0.00 | 0.03 | 0.03 | 99 | 1009.2 |
| 20260506013829 | 58 | 69 | 0.9 | 1.7 | 0.00 | 0.03 | 0.03 | 99 | 1008.9 |
| 20260506013327 | 58 | 71 | 0.9 | 0.9 | 0.00 | 0.03 | 0.03 | 99 | 1009.0 |
| 20260506012823 | 58 | 99 | 0.0 | 1.7 | 0.00 | 0.03 | 0.03 | 99 | 1008.9 |
| 20260506012320 | 58 | 75 | 0.9 | 0.9 | 0.00 | 0.03 | 0.03 | 99 | 1008.6 |
| 20260506011818 | 58 | 90 | 0.0 | 0.0 | 0.00 | 0.03 | 0.03 | 99 | 1008.8 |
| 20260506011314 | 58 | 81 | 0.0 | 0.9 | 0.00 | 0.03 | 0.03 | 99 | 1008.8 |
| 20260506010811 | 58 | 74 | 0.0 | 0.9 | 0.00 | 0.03 | 0.03 | 99 | 1008.7 |
| 20260506010309 | 58 | 90 | 0.0 | 0.0 | 0.00 | 0.03 | 0.03 | 99 | 1008.9 |
| 20260506005806 | 58 | 90 | 0.0 | 0.9 | 0.00 | 0.03 | 0.03 | 99 | 1008.9 |
| 20260506005305 | 58 | 83 | 0.9 | 1.7 | 0.00 | 0.03 | 0.03 | 99 | 1008.8 |
| 20260506004759 | 58 | 74 | 0.0 | 0.9 | 0.00 | 0.03 | 0.03 | 99 | 1008.9 |
| 20260506004257 | 58 | 81 | 0.0 | 0.0 | 0.00 | 0.03 | 0.03 | 99 | 1009.1 |
| 20260506003752 | 58 | 90 | 0.0 | 0.9 | 0.00 | 0.03 | 0.03 | 98 | 1009.1 |
| 20260506003249 | 58 | 90 | 0.0 | 0.9 | 0.00 | 0.03 | 0.03 | 98 | 1009.1 |
| 20260506002745 | 58 | 69 | 0.9 | 1.7 | 0.00 | 0.03 | 0.03 | 98 | 1009.0 |
| 20260506002241 | 58 | 90 | 0.0 | 0.9 | 0.00 | 0.03 | 0.03 | 98 | 1009.1 |
| 20260506001737 | 58 | 114 | 0.0 | 1.7 | 0.00 | 0.03 | 0.03 | 98 | 1009.2 |
| 20260506001235 | 58 | 55 | 1.7 | 2.6 | 0.02 | 0.03 | 0.03 | 98 | 1008.9 |
| 20260506000732 | 58 | 139 | 0.0 | 2.6 | 0.05 | 0.03 | 0.03 | 97 | 1009.1 |
| 20260506000229 | 58 | 59 | 1.7 | 3.5 | 0.02 | 0.02 | 0.02 | 97 | 1009.2 |
| 20260505235726 | 58 | 81 | 2.6 | 3.5 | 0.02 | 0.02 | 0.02 | 97 | 1008.8 |
| 20260505235224 | 58 | 19 | 1.7 | 5.2 | 0.02 | 0.02 | 0.02 | 97 | 1008.9 |
| 20260505234721 | 59 | 53 | 2.6 | 5.2 | 0.02 | 0.02 | 0.02 | 97 | 1009.0 |
| 20260505234218 | 59 | 94 | 2.6 | 5.2 | 0.00 | 0.01 | 0.01 | 96 | 1009.1 |
| 20260505233714 | 59 | 60 | 2.6 | 2.6 | 0.02 | 0.01 | 0.01 | 96 | 1008.8 |
| 20260505233212 | 59 | 72 | 4.3 | 4.3 | 0.02 | 0.01 | 0.01 | 95 | 1009.0 |
| 20260505232709 | 59 | 55 | 2.6 | 4.3 | 0.02 | 0.01 | 0.01 | 93 | 1009.2 |